Weather in Marusino

Russia / Novosibirsk Oblast     55°02′18″N   82°45′18″E
temp.,
°C
wind,
m/s
gust,
m/s
humid.,
%
clouds,
%
prec.,
mm/h
press.,
hPa
HPBL,
m
3 august, tue
tue301:00+17w37920 2.3 1005126
04:00+15w3796100 0.0 1005137
07:00+16w26957 0.0 1006209
10:00+21wnw457897 0.0 1006566
13:00+25wnw56505 0.3 10061476
16:00+25w7647100 0.1 10061855
19:00+23w3457100 0.4 1006970
22:00+17nw2280100 1.2 100715
4 august, wed
wed401:00+15wnw2287100 1.2 100715
04:00+15wnw2292100 0.0 100718
07:00+15wnw2291100 0.0 100875
10:00+19wnw2374100 0.0 1008444
13:00+23nw235119 0.0 10071441
16:00+24nnw3343100 0.0 10062245
19:00+21nnw116095 0.0 100612
22:00+18nw1170100 0.0 100711
5 august, thu
thu501:00+14nw229394 0.6 100716
04:00+14wnw1192100 0.2 100611
07:00+15w119192 0.9 100747
10:00+19wnw117329 0.4 1006423
13:00+24wsw21535 0.4 10061263
16:00+24sw225145 0.4 10051481
19:00+22sw116621 2.0 1005172
22:00+16n229129 1.6 100629
6 august, fri
fri601:00+15nnw229266 2.2 100512
04:00+14wnw1193100 0.0 100511
07:00+15ssw2392100 0.0 100574
10:00+18wsw3380100 0.0 1006517
13:00+21sw5664100 0.0 10061143
16:00+20wsw5568100 0.1 1007988
19:00+19ssw4576100 0.2 1007659
22:00+15sse349234 0.0 100873
7 august, sat
sat701:00+14sse349638 0.0 100882
04:00+13se33955 0.0 100854
07:00+14se259356 0.0 1008156
10:00+19se347786 0.0 1008528
13:00+22sse346571 0.4 10081126
16:00+24sse335612 0.5 10071308
19:00+23sse325947 0.6 10081005
22:00+17ese118320 0.1 100811